sat.trackr.live / text

‹ back to catalog

STARLINK-34000

NORAD 64180 · 2025-113L

PAYLOAD ACTIVE UNKNOWN

§ Identity

Operator
Country
US
Launch date
2025-05-28
Launch site
AFETR
Launch vehicle
Mass (kg)
RCS (m²)

Purposes: comms

External: N2YO · Heavens-Above · Gunter

§ Orbital elements

Epoch: 2026-05-25T03:33:15.312960Z

Period
94.11 min
Inclination
53.1578°
Eccentricity
0.0001371
Mean motion
15.30177439 rev/d
Perigee alt
474.3 km
Apogee alt
476.2 km
Semi-major
6,853.4 km
B*
7.8058e-4
RAAN
95.8155°
Arg perigee
86.2415°
Mean anomaly
273.8742°
Rev number
5,673

§ Raw data

STARLINK-340001 64180U 25113L   26145.14809390  .00022814  00000+0  78058-3 0  99902 64180  53.1578  95.8155 0001371  86.2415 273.8742 15.30177439 56735

JSON: /api/v1/satellites/64180 · /tle

For live sub-satellite position, see the globe view (requires WebGL).

§ Visibility from observer

Set your observer location to see the next 7 days of passes ≥ 10°. The values pass through the URL so the page stays shareable.

No JS? Fill the form by hand. The geolocation button needs JavaScript.